Find Starlink 33773

NORAD ID: 63713 Int'l Des: 2025-087 Owner: SPXS Country: US Constellation: starlink operational
LEOCIRCULAR

Live-Position

3D-Globus wird geladen...

Über Starlink 33773

Beschreibung wird geladen...

Nächste Überflüge

Passes for default location (London). Set your location on the main map for personalized predictions.

Höhenverlauf

Loading altitude history...

Zweizeiliger Elementsatz

1 63713U 25087S 26123.94911794 .00020425 00000-0 66781-3 0 9994
2 63713 53.1593 322.6276 0000377 136.6908 223.4123 15.31715196 57666
Epoch: 3. Mai 2026 • Age: 13 hours

Aktueller Status

Höhe 474.8 km
Geschwindigkeit 7.63 km/s
Subsatellitenpunkt 42.85°N, 31.87°W
Startdatum 28. Apr. 2025
Alter 1 years
Typ internet

Technische Details

Klassifizierung Payload
Masse 575.00 kg
Trockenmasse 530.00 kg
Gesamtmasse 575.00 kg
Länge 0.30 m
Durchmesser 4.10 m
Spannweite 29.00 m
Form Box + pan
Hersteller SPXS
Bus-Typ Starlink V2MO
Phasenstatus In Orbit
Besitzer/Staat SPXS/US

Most Searched